[[{"header":{"parameterUnit":"m.s-1","parameterCategory":1,"la1":30.2992,"la2":30.254,"lo1":-89.0895,"lo2":-89.0443,"dy":0.0025,"dx":0.0025,"nx":19,"ny":19,"refTime":"2026-05-12T03:00:00:Z","depth":0,"parameterNumber":2,"parameterNumberName":"U-component_of_WINDS"},"data":[0,0,0,-3.3934,-3.3936,-3.401,-3.401,-3.4137,-3.4138,0,0,0,0,0,0,0,0,0,0,0,-3.3933,-3.3934,-3.3934,-3.3936,-3.401,-3.401,-3.4137,-3.4138,0,0,0,0,0,0,0,0,0,0,0,-3.3932,-3.3934,-3.3936,-3.3937,-3.401,-3.401,-3.4136,-3.4069,0,0,0,0,0,0,0,0,0,0,-3.3992,-3.4011,-3.3934,-3.3936,-3.3937,-3.401,-3.401,-3.4065,-3.4073,-3.4118,0,-3.4163,0,-3.4153,-3.4149,-3.415,0,0,0,-3.3921,-3.4005,-3.4006,-3.3936,-3.3938,-3.401,-3.3972,-3.4069,-3.4079,-3.4129,-3.4165,-3.4168,-3.4155,-3.415,-3.4151,-3.4456,-3.4458,0,0,-3.3917,-3.3958,-3.3999,-3.4012,-3.4004,-3.397,-3.3975,-3.4074,-3.4117,-3.4165,-3.4171,-3.4157,-3.4151,-3.4152,-3.4454,-3.4456,0,0,0,-3.3916,-3.3956,-3.3953,-3.4008,-3.4019,-3.3973,-3.3978,-3.4112,-3.4108,-3.4172,-3.4159,-3.4152,-3.4154,-3.4452,-3.4455,-3.46,0,0,0,-3.3912,-3.3954,-3.3952,-3.3978,-3.4018,-3.4067,-3.4015,-3.4101,-3.4111,-3.4158,-3.4152,-3.4155,-3.4449,-3.4453,-3.4591,-3.4663,0,0,0,-3.3921,-3.3955,-3.3973,-3.398,-3.4013,-3.4064,-3.4065,-3.4102,-3.4104,-3.415,-3.4156,-3.4448,-3.4453,-3.4583,-3.465,-3.4756,0,0,0,-3.3942,-3.4102,-3.3976,-3.4148,-3.4012,-3.4153,-3.4064,-3.4167,-3.4223,-3.4153,-3.4449,-3.4455,-3.458,-3.4641,-3.4747,-3.4854,-3.4901,0,0,-3.4167,-3.4131,-3.4229,-3.4118,-3.4291,-3.4138,-3.4332,-3.4346,-3.4314,-3.441,-3.4417,-3.4594,-3.4649,-3.4754,-3.5149,-3.5188,0,0,0,-3.4314,-3.4385,-3.4422,-3.4477,-3.449,-3.4507,-3.4486,-3.4491,-3.457,-3.4372,-3.4658,-3.469,-3.475,-3.4799,-3.4831,-3.488,-3.4478,-3.4478,-3.4477,-3.4694,-3.4641,-3.4799,-3.4755,-3.4809,-3.4783,-3.4822,-3.4823,-3.4757,-3.4825,-3.4855,-3.5101,-3.516,-3.5184,-3.5236,-3.4904,-3.4905,-3.4905,-3.4906,-3.5019,-3.5113,-3.5014,-3.5134,-3.5076,-3.5175,-3.5155,-3.5104,-3.5188,-3.5075,-3.5125,-3.5009,-3.5227,-3.527,-3.4916,-3.4914,-3.4913,-3.4912,-3.4911,-3.5265,-3.53,-3.53,-3.5371,-3.5431,-3.5378,-3.5462,-3.5407,-3.5355,-3.5405,-3.543,-3.5427,-3.5419,-3.5419,-3.542,-3.5421,-3.5422,-3.5423,-3.5423,-3.5521,-3.5516,-3.5593,-3.5616,-3.5642,-3.5668,-3.564,-3.5664,-3.5677,-3.563,-3.5629,-3.5556,-3.5257,-3.5185,-3.5436,-3.5434,-3.5432,-3.5431,-3.543,-3.5876,-3.5785,-3.5905,-3.5931,-3.5951,-3.6014,-3.5938,-3.5991,-3.6002,-3.6045,-3.5958,-3.5746,-3.5706,-3.568,-3.562,-3.5969,-3.5969,-3.5969,-3.5969,-3.6086,-3.6057,-3.6165,-3.6209,-3.6245,-3.6188,-3.6324,-3.6302,-3.6266,-3.6269,-3.6209,-3.6123,-3.6099,-3.6073,-3.6039,-3.5982,-3.6415,-3.6415,-3.6416,-3.6301,-3.6273,-3.6401,-3.6361,-3.6371,-3.6381,-3.6507,-3.6561,-3.65,-3.6433,-3.627,-3.6252,-3.6112,-3.6069,-3.6004,-3.5951,-3.5845,0,0]},{"header":{"parameterUnit":"m.s-1","parameterCategory":1,"la1":30.2992,"la2":30.254,"lo1":-89.0895,"lo2":-89.0443,"dy":0.0025,"dx":0.0025,"nx":19,"ny":19,"refTime":"2026-05-12T03:00:00:Z","depth":0,"parameterNumber":3,"parameterNumberName":"V-component_of_WINDS"},"data":[0,0,0,-2.4907,-2.491,-2.5044,-2.5045,-2.5214,-2.5216,0,0,0,0,0,0,0,0,0,0,0,-2.4866,-2.4867,-2.4907,-2.491,-2.5044,-2.5045,-2.5214,-2.5216,0,0,0,0,0,0,0,0,0,0,0,-2.4865,-2.4867,-2.4868,-2.4911,-2.5044,-2.5045,-2.5214,-2.5113,0,0,0,0,0,0,0,0,0,0,-2.4984,-2.4944,-2.4866,-2.4868,-2.4912,-2.5044,-2.5045,-2.5109,-2.512,-2.5153,0,-2.5181,0,-2.5201,-2.5227,-2.5228,0,0,0,-2.4912,-2.4935,-2.4972,-2.4868,-2.4913,-2.5044,-2.4984,-2.5115,-2.5127,-2.5167,-2.5183,-2.519,-2.5204,-2.5228,-2.5229,-2.541,-2.541,0,0,-2.4905,-2.489,-2.4963,-2.498,-2.4958,-2.498,-2.4988,-2.5122,-2.5139,-2.5184,-2.5194,-2.5206,-2.5229,-2.523,-2.5409,-2.541,0,0,0,-2.4882,-2.4884,-2.4918,-2.4973,-2.4997,-2.4984,-2.4994,-2.5133,-2.5146,-2.5195,-2.5208,-2.523,-2.5232,-2.5408,-2.5409,-2.5431,0,0,0,-2.4878,-2.4871,-2.4915,-2.4907,-2.4994,-2.5067,-2.5001,-2.5136,-2.5152,-2.5208,-2.523,-2.5234,-2.5407,-2.5409,-2.5429,-2.5445,0,0,0,-2.4858,-2.4869,-2.4888,-2.4906,-2.4963,-2.5065,-2.5085,-2.514,-2.516,-2.5228,-2.5234,-2.5407,-2.5408,-2.5427,-2.5442,-2.5487,0,0,0,-2.4833,-2.4907,-2.4888,-2.4976,-2.4962,-2.5077,-2.5084,-2.5172,-2.5232,-2.5231,-2.5407,-2.5409,-2.5426,-2.5439,-2.5485,-2.5523,-2.5537,0,0,-2.4919,-2.4917,-2.497,-2.4957,-2.5071,-2.5058,-2.5177,-2.5248,-2.5269,-2.5361,-2.5366,-2.543,-2.5441,-2.5487,-2.5623,-2.5634,0,0,0,-2.4993,-2.503,-2.5064,-2.512,-2.5175,-2.5222,-2.5276,-2.5302,-2.5381,-2.5313,-2.5459,-2.5467,-2.5494,-2.5513,-2.5522,-2.5546,-2.5417,-2.5417,-2.5417,-2.5094,-2.5115,-2.5203,-2.524,-2.5294,-2.5347,-2.5393,-2.5437,-2.5444,-2.5478,-2.5506,-2.5586,-2.5607,-2.5615,-2.5639,-2.5528,-2.5528,-2.5528,-2.5528,-2.5222,-2.5278,-2.5283,-2.537,-2.5391,-2.5466,-2.5519,-2.5521,-2.5593,-2.5567,-2.5592,-2.5562,-2.5626,-2.5649,-2.553,-2.553,-2.5529,-2.5529,-2.5529,-2.5291,-2.5321,-2.5349,-2.5431,-2.5491,-2.5525,-2.5593,-2.5611,-2.5629,-2.5653,-2.5684,-2.5683,-2.5685,-2.5666,-2.5667,-2.5667,-2.5667,-2.5667,-2.5667,-2.535,-2.5382,-2.5436,-2.5498,-2.5535,-2.5586,-2.5638,-2.5675,-2.5721,-2.5729,-2.5729,-2.5732,-2.5628,-2.5602,-2.5672,-2.5671,-2.5671,-2.567,-2.567,-2.5472,-2.5447,-2.5531,-2.5568,-2.564,-2.5698,-2.5719,-2.5792,-2.5826,-2.5859,-2.5855,-2.5776,-2.5777,-2.5769,-2.5747,-2.5851,-2.5851,-2.5851,-2.5851,-2.553,-2.5531,-2.562,-2.5677,-2.5735,-2.5761,-2.5855,-2.5896,-2.5934,-2.5956,-2.5944,-2.5916,-2.5907,-2.5913,-2.5902,-2.5882,-2.6018,-2.6018,-2.6018,-2.5605,-2.5612,-2.5689,-2.5724,-2.5782,-2.5831,-2.5919,-2.5985,-2.6024,-2.6025,-2.5973,-2.5966,-2.5922,-2.5907,-2.5908,-2.5891,-2.5855,0,0]}]]